TimeEDT,TemperatureF,Dew PointF,Humidity,Sea Level PressureIn,VisibilityMPH,Wind Direction,Wind SpeedMPH,Gust SpeedMPH,PrecipitationIn,Events,Conditions,WindDirDegrees,DateUTC
12:54 AM,69.1,62.1,78,30.21,10.0,South,3.5,-,N/A,,Clear,190,2013-05-30 04:54:00
1:54 AM,68.0,62.1,81,30.21,10.0,South,3.5,-,N/A,,Clear,190,2013-05-30 05:54:00
2:54 AM,66.9,62.1,84,30.21,10.0,Calm,Calm,-,N/A,,Clear,0,2013-05-30 06:54:00
3:54 AM,66.0,62.1,87,30.21,10.0,SW,3.5,-,N/A,,Clear,220,2013-05-30 07:54:00
4:54 AM,64.0,61.0,90,30.22,10.0,Calm,Calm,-,N/A,,Clear,0,2013-05-30 08:54:00
5:54 AM,63.0,61.0,93,30.24,10.0,Calm,Calm,-,N/A,,Clear,0,2013-05-30 09:54:00
6:05 AM,60.8,60.8,100,30.25,1.8,Calm,Calm,-,N/A,,Clear,0,2013-05-30 10:05:00
6:33 AM,60.8,60.8,100,30.26,3.0,Calm,Calm,-,N/A,,Clear,0,2013-05-30 10:33:00
6:47 AM,60.8,60.8,100,30.26,2.5,Calm,Calm,-,N/A,,Clear,0,2013-05-30 10:47:00
6:54 AM,61.0,61.0,100,30.25,5.0,Calm,Calm,-,N/A,,Clear,0,2013-05-30 10:54:00
7:54 AM,66.9,64.0,90,30.26,10.0,South,3.5,-,N/A,,Clear,190,2013-05-30 11:54:00
8:54 AM,72.0,64.0,76,30.27,10.0,SW,9.2,-,N/A,,Clear,230,2013-05-30 12:54:00
9:54 AM,75.9,64.0,67,30.27,10.0,Variable,6.9,-,N/A,,Clear,0,2013-05-30 13:54:00
10:54 AM,77.0,64.0,64,30.27,10.0,WSW,8.1,-,N/A,,Clear,240,2013-05-30 14:54:00
11:54 AM,78.1,64.9,64,30.27,10.0,WSW,5.8,-,N/A,,Mostly Cloudy,240,2013-05-30 15:54:00
12:54 PM,81.0,66.0,60,30.25,10.0,Variable,3.5,-,N/A,,Scattered Clouds,0,2013-05-30 16:54:00
1:54 PM,82.0,64.0,54,30.23,10.0,SSW,4.6,-,N/A,,Clear,200,2013-05-30 17:54:00
2:54 PM,82.9,63.0,51,30.21,10.0,Variable,3.5,-,N/A,,Clear,0,2013-05-30 18:54:00
3:54 PM,84.9,62.1,46,30.19,10.0,South,5.8,-,N/A,,Clear,180,2013-05-30 19:54:00
4:54 PM,84.9,60.1,43,30.19,10.0,Variable,5.8,-,N/A,,Clear,0,2013-05-30 20:54:00
5:54 PM,84.0,60.1,44,30.19,10.0,South,6.9,-,N/A,,Clear,180,2013-05-30 21:54:00
6:54 PM,82.9,61.0,47,30.19,10.0,South,4.6,-,N/A,,Clear,180,2013-05-30 22:54:00
7:54 PM,81.0,62.1,52,30.18,10.0,Calm,Calm,-,N/A,,Clear,0,2013-05-30 23:54:00
8:54 PM,73.0,63.0,71,30.18,10.0,Calm,Calm,-,N/A,,Clear,0,2013-05-31 00:54:00
9:54 PM,70.0,64.0,81,30.19,10.0,Calm,Calm,-,N/A,,Clear,0,2013-05-31 01:54:00
10:54 PM,70.0,64.0,81,30.19,10.0,Calm,Calm,-,N/A,,Clear,0,2013-05-31 02:54:00
11:54 PM,66.0,63.0,90,30.19,10.0,Calm,Calm,-,N/A,,Clear,0,2013-05-31 03:54:00